Lexington Weather

Lexington, Massachusetts, USA

34°F
4/16/2021 11:16am 
  • Lexington Conditions: Light snow, Mist, Overcast
  • Temperature: 34.0°F / 1.1°C 
  • Dew Point: 32.7°F 
  • Relative Humidity: 95
  • Wind: Wind from N N Calm, 10-min avg: 1 mph, gust: 4 mph
  • Barometer: 29.46 inFalling 0.03  inHg/hr Falling Slowly
  • Visibility: ¾ mile
  • Snow Today: 1.7 in
  •   

Regional Weather Roundup
for Boston / Norton, MA

        
000
ASUS41 KBOX 091704
RWRBOX

REGIONAL WEATHER ROUNDUP
NATIONAL WEATHER SERVICE BOSTON/NORTON MA
100 PM EDT FRI APR 09 2021

NOTE:  "FAIR" INDICATES FEW OR NO CLOUDS BELOW 12,000 FEET WITH NO 
SIGNIFICANT WEATHER AND/OR OBSTRUCTIONS TO VISIBILITY.

MAZALL-091800-
EASTERN MASSACHUSETTS
  
CITY           SKY/WX    TMP DP  RH WIND       PRES   REMARKS
BOSTON         MOSUNNY   59  45  59 E13       30.17F                  
BEVERLY        SUNNY     58  45  62 SE12      30.16F                  
LAWRENCE       SUNNY     65  45  48 CALM      30.15F                  
BEDFORD        SUNNY     66  45  46 VRB3      30.13F                  
BLUE HILL        N/A     62  42  47 VRB3      30.14F                  
NORWOOD        SUNNY     67  43  41 CALM      30.14F                  
MARSHFIELD     SUNNY     57  45  62 SE9       30.17F                  
PLYMOUTH       SUNNY     62  45  53 E9        30.15F                  
TAUNTON        SUNNY     66  44  45 CALM      30.15F                  
NEW BEDFORD    SUNNY     62  44  51 SE12      30.16F                  
$$

MAZALL-091800-
CAPE COD AND THE ISLANDS
  
CITY           SKY/WX    TMP DP  RH WIND       PRES   REMARKS
FALMOUTH       MOSUNNY   63  45  51 SW7       30.17F                  
HYANNIS        SUNNY     61  46  57 N9        30.16F                  
CHATHAM        SUNNY     55  43  63 E12       30.19S                  
PROVINCETOWN   SUNNY     56  45  66 NE7       30.19                   
NANTUCKET      SUNNY     59  45  59 NE8       30.17F                  
MARTHAS VNYRD  SUNNY     58  45  62 SW9       30.18F                  
$$
 
MAZALL-091800-
CENTRAL AND WESTERN MASSACHUSETTS
  
CITY           SKY/WX    TMP DP  RH WIND       PRES   REMARKS
WORCESTER      SUNNY     64  41  42 SE8       30.14F                  
FITCHBURG      SUNNY     67  42  40 S6        30.13F                  
ORANGE         SUNNY     65  40  39 SW7       30.14F                  
SPRINGFIELD    MOSUNNY   66  42  41 SW5       30.12F                  
WESTFIELD      SUNNY     66  43  43 SE9       30.12F                  
NORTH ADAMS    SUNNY     71  43  36 SE9       30.08F                  
PITTSFIELD     MOSUNNY   66  41  40 SW9       30.09F                  
$$
 
RIZALL-091800-
RHODE ISLAND
  
CITY           SKY/WX    TMP DP  RH WIND       PRES   REMARKS
PROVIDENCE     MOSUNNY   61  45  55 SE10      30.17F                  
NEWPORT        SUNNY     56  45  66 S8        30.17F                  
BLOCK ISLAND   SUNNY     48  44  86 S7        30.20F                  
SMITHFIELD     SUNNY     64  44  48 VRB6      30.15F                  
WESTERLY       SUNNY     47  42  83 SE7       30.19F                  
$$
 
CTZALL-091800-
CONNECTICUT
  
CITY           SKY/WX    TMP DP  RH WIND       PRES   REMARKS
BRADLEY INTL   PTSUNNY   66  43  43 CALM      30.13F                  
HARTFORD       SUNNY     65  45  48 S7        30.14F                  
BRIDGEPORT     CLOUDY    47  44  90 VRB7      30.19S                  
DANBURY        MOSUNNY   64  44  48 SE5       30.16F                  
GROTON         MOSUNNY   45  43  93 S8        30.18F                  
NEW HAVEN      FOG       48  44  86 SE7       30.19S VSB 1            
CHESTER        FAIR      61  45  55 E7        30.16F                  
MERIDEN        MOSUNNY   62  44  51 S6        30.15F                  
WILLIMANTIC    SUNNY     65  41  41 E6        30.14F                  
OXFORD         MOSUNNY   61  46  57 S10       30.16F                  
$$

MEZ002-015-021-024-NHZ003-005-008-011-012-014-VTZ005-008-091800-
NORTHERN NEW ENGLAND
  
CITY           SKY/WX    TMP DP  RH WIND       PRES   REMARKS
PORTLAND ME    MOSUNNY   57  45  64 S12       30.15F                  
BANGOR ME      MOSUNNY   65  46  50 VRB6      30.11F                  
CONCORD NH     SUNNY     67  42  40 VRB5      30.12F                  
MANCHESTER NH  MOSUNNY   67  42  40 W7        30.12F                  
NASHUA NH      SUNNY     66  43  43 CALM      30.14F                  
PORTSMOUTH NH  MOSUNNY   61  43  51 SE9       30.15F                  
JAFFREY NH     SUNNY     65  41  41 CALM      30.13F                  
KEENE NH       SUNNY     66  44  45 CALM      30.12F                  
BURLINGTON VT  MOSUNNY   71  42  35 S12G22    30.06F                  
MT. WASHINGTON PTSUNNY   46  37  71 W7          N/A                   
$$

NYZ052-076-091800-
EASTERN NEW YORK
  
CITY           SKY/WX    TMP DP  RH WIND       PRES   REMARKS
ALBANY         PTSUNNY   64  43  46 SE9       30.10F                  
NEW YORK CITY  PTSUNNY   56  42  59 S13       30.17S                  
$$
 
ANZALL-091800-
MARINE OBSERVATIONS
  
STATION/POSITION TIME  TEMP    WIND        PRES    VSBY  WAVE
                       AIR SEA DIR/SP/G                  HT/PER
                 (UTC) (F)     (DEG/KT/KT) (MB)    (MI)  (FT/S)
BOSTON BUOY      1640   46 45  130/  6/  8 1022.2F
BUZZARDS BAY     1600          230/  7/  7 1023.8F
NANTUCKET SOUND  1640      46                N/A
MASS BAY-STELLWA 1604   47     180/  4/  6 1021.4F  1 7/8  4/11
ISLE OF SHOALS   1600   47     140/  6/  7 1021.7F
S OF BLOCK IS    1626      47                N/A           3/11
$$

......................KEY.........................
  SKY/WX - SKY CONDITION/PRESENT WEATHER
  TMP    - TEMPERATURE IN FAHRENHEIT
  DWPT   - DEWPOINT IN FAHRENHEIT
  RH     - RELATIVE HUMIDITY IN PERCENT
  WIND   - DIRECTION AND SPEED IN MPH
  PRES   - MEAN SEA LEVEL PRESSURE IN INCHES OF HG
  WCI    - WIND CHILL INDEX
  VSB    - VISIBILITY IN MILES
  HX     - HEAT INDEX
  TC     - TEMPERATURE IN CELSIUS
  VRB    - VARIABLE WIND DIRECTION
  N/A    - NOT AVAILABLE
  
      

Other recent Regional Weather Roundups

Fri Apr 16, 11:04am

Fri Apr 16, 10:05am

Fri Apr 16, 9:04am

Fri Apr 16, 8:04am

Fri Apr 16, 7:04am

Fri Apr 16, 6:04am

Fri Apr 16, 5:04am

Fri Apr 16, 4:04am

Fri Apr 16, 3:04am

Fri Apr 16, 2:04am

Fri Apr 16, 1:04am

Fri Apr 16, 12:04am

Thu Apr 15, 11:05pm

Thu Apr 15, 10:04pm

Thu Apr 15, 9:04pm

Thu Apr 15, 8:04pm

Thu Apr 15, 7:05pm

Thu Apr 15, 6:04pm

Thu Apr 15, 5:05pm

Thu Apr 15, 4:04pm

Thu Apr 15, 3:05pm

Thu Apr 15, 2:04pm

Thu Apr 15, 1:05pm

Thu Apr 15, 12:04pm

Thu Apr 15, 11:04am

Thu Apr 15, 10:05am

Thu Apr 15, 9:04am

Thu Apr 15, 8:04am

Thu Apr 15, 7:04am

Thu Apr 15, 6:04am

Thu Apr 15, 5:04am

Thu Apr 15, 4:04am

Thu Apr 15, 3:04am

Thu Apr 15, 2:04am

Thu Apr 15, 1:04am

Thu Apr 15, 12:04am

Wed Apr 14, 11:04pm

Wed Apr 14, 10:04pm

Wed Apr 14, 9:04pm

Wed Apr 14, 8:04pm

Wed Apr 14, 7:04pm

Wed Apr 14, 6:04pm

Wed Apr 14, 5:05pm

Wed Apr 14, 4:04pm

Wed Apr 14, 3:05pm

Wed Apr 14, 2:04pm

Wed Apr 14, 1:05pm

Wed Apr 14, 12:04pm

Wed Apr 14, 11:04am

Wed Apr 14, 10:04am

Wed Apr 14, 9:04am

Wed Apr 14, 8:04am

Wed Apr 14, 7:04am

Wed Apr 14, 6:04am

Wed Apr 14, 5:04am

Wed Apr 14, 4:04am

Wed Apr 14, 3:04am

Wed Apr 14, 2:04am

Wed Apr 14, 1:04am

Wed Apr 14, 12:04am

Tue Apr 13, 11:04pm

Tue Apr 13, 10:05pm

Tue Apr 13, 9:05pm

Tue Apr 13, 8:05pm

Tue Apr 13, 7:04pm

Tue Apr 13, 6:04pm

Tue Apr 13, 5:05pm

Tue Apr 13, 4:04pm

Tue Apr 13, 3:04pm

Tue Apr 13, 2:05pm

Tue Apr 13, 1:04pm

Tue Apr 13, 12:05pm

Tue Apr 13, 11:05am

Tue Apr 13, 10:04am

Tue Apr 13, 9:04am

Tue Apr 13, 8:04am

Tue Apr 13, 7:04am

Tue Apr 13, 6:04am

Tue Apr 13, 5:04am

Tue Apr 13, 4:04am

Tue Apr 13, 3:04am

Tue Apr 13, 2:04am

Tue Apr 13, 1:04am

Tue Apr 13, 12:05am

Mon Apr 12, 11:04pm

Mon Apr 12, 10:04pm

Mon Apr 12, 9:04pm

Mon Apr 12, 8:04pm

Mon Apr 12, 7:05pm

Mon Apr 12, 6:04pm

Mon Apr 12, 5:04pm

Mon Apr 12, 4:04pm

Mon Apr 12, 3:05pm

Mon Apr 12, 2:04pm

Mon Apr 12, 1:05pm

Mon Apr 12, 12:04pm

Mon Apr 12, 11:04am

Mon Apr 12, 10:04am

Mon Apr 12, 9:04am

Mon Apr 12, 8:04am

Mon Apr 12, 7:04am

Mon Apr 12, 6:04am

Mon Apr 12, 5:04am

Mon Apr 12, 4:04am

Mon Apr 12, 3:04am

Mon Apr 12, 2:04am

Mon Apr 12, 1:05am

Mon Apr 12, 12:04am

Sun Apr 11, 11:04pm

Sun Apr 11, 10:04pm

Sun Apr 11, 9:04pm

Sun Apr 11, 8:04pm

Sun Apr 11, 7:04pm

Sun Apr 11, 6:05pm

Sun Apr 11, 5:05pm

Sun Apr 11, 4:04pm

Sun Apr 11, 3:05pm

Sun Apr 11, 2:05pm

Sun Apr 11, 1:05pm

Sun Apr 11, 12:04pm

Sun Apr 11, 11:05am

Sun Apr 11, 10:05am

Sun Apr 11, 9:04am

Sun Apr 11, 8:04am

Sun Apr 11, 7:04am

Sun Apr 11, 6:04am

Sun Apr 11, 5:04am

Sun Apr 11, 4:04am

Sun Apr 11, 3:04am

Sun Apr 11, 2:04am

Sun Apr 11, 1:05am

Sun Apr 11, 12:04am

Sat Apr 10, 11:05pm

Sat Apr 10, 10:04pm

Sat Apr 10, 9:04pm

Sat Apr 10, 8:04pm

Sat Apr 10, 7:05pm

Sat Apr 10, 6:04pm

Sat Apr 10, 5:04pm

Sat Apr 10, 4:04pm

Sat Apr 10, 3:04pm

Sat Apr 10, 2:05pm

Sat Apr 10, 1:04pm

Sat Apr 10, 12:04pm

Sat Apr 10, 11:04am

Sat Apr 10, 10:04am

Sat Apr 10, 9:04am

Sat Apr 10, 8:04am

Sat Apr 10, 7:04am

Sat Apr 10, 6:04am

Sat Apr 10, 5:04am

Sat Apr 10, 4:04am

Sat Apr 10, 3:04am

Sat Apr 10, 2:04am

Sat Apr 10, 1:05am

Sat Apr 10, 12:04am

Fri Apr 9, 11:04pm

Fri Apr 9, 10:05pm

Fri Apr 9, 9:04pm

Fri Apr 9, 8:05pm

Fri Apr 9, 7:05pm

Fri Apr 9, 6:04pm

Fri Apr 9, 5:04pm

Fri Apr 9, 4:05pm

Fri Apr 9, 3:05pm

Fri Apr 9, 2:04pm

Fri Apr 9, 12:04pm

Meta data:

ID: 6e17ea66-be07-4236-8d54-0c8ad32983bc
Link: https://api.weather.gov/products/6e17ea66-be07-4236-8d54-0c8ad32983bc